CZ-6A DEB, 54590

Orbit data source: Space-Track

CZ-6A DEB, 54590 is space debris in SSO originally from a launch on Fri, 11 Nov 2022 UTC launched from the Taiyaun Space Center, China (TSC). Debris objects in space refer to the collection of defunct objects orbiting the Earth. Examples of debris include non-operational satellites, rocket bodies, and fragments generated from explosions, collisions, or faulty payload assembly.

Loading next visibility...
Identifier
54590, 2022-151MQ
Orbit
SSO
Country
Flag of CNCN / PRC
Related business
Manufacturer
SAST
Mission
Spacecraft
Bus & Motor
Unknown
Mass
Unknown
Launch date (UTC)
2022-11-11 (4 years ago)
Launch vehicle
Unknown
Launch site
Taiyaun Space Center, China (TSC)
Object type
Payload
Rocket body
Debris
Shape & HBR
Unknown shape, 0.1 m
Radar Cross Section
Medium (>0.1 m² and <1 m²)

Expand to show TLE details & history
Last TLE update: 20 hours ago

TLE from 20 hours ago
0 CZ-6A DEB
1 54590U 22151MQ  26264.01058098  .00001881  00000-0  61834-3 0  9998
2 54590  98.6071 274.3809 0068507 145.5106 215.0555 14.38103731200889
Epoch: 2026-09-21T00:15Z
TLE epoch observation values (Epoch: 2026-09-21T00:15:14.196Z)
Latitude
0.00002°
Longitude
-89.3248°
Altitude
807.888 km
Speed
7.428 km/s
True Right ascension
18h 17m 31s
True Declination
0° 00' 00"
Sunlit
Object was in daylight at epoch
Visualization orbit readout
Latitude
Unknown
Longitude
Unknown
Altitude
Unknown
Speed
Unknown
Apparent Right ascension
Unknown
Apparent Declination
Unknown
Sunlit
N/A
Visualization observer readout
Local Sidereal Time
13:11:06
Azimuth
Unknown
Elevation
Unknown
Doppler factor
Unknown
Orbital elements
Apogee altitude
810.814 km
Perigee altitude
712.986 km
Semi-major axis
7,140.037 km
Eccentricity
0.00685
Inclination
98.6071°
RAAN
274.3809°
Arg. of periapsis
145.5106°
True anomaly
214.60775°
Mean anomaly
215.0555°
Eccentric anomaly
214.83131°
Mean motion
3.59743 °/min
Orbital period
100.07 mins
BSTAR
0.00061834
Loading maneuver chart data...
Computing Atmospheric mass density...
Loading historical data...
Loading historical data...
Loading historical data...
Loading historical data...
Loading historical data...
Loading historical data...
Loading historical data...

Documentation

Showing up to 5 results
|